Hourly Data Report for September 04, 2010

PETERBOROUGH AWOS
ONTARIO

44°14'00.000" N
78°22'00.000" W
191.40 m
6166420

Download Data

Hourly Data (September 2010)
Hourly Data Report for September 4, 2010
TIME
LST
Temp Definition
°C
Dew Point Definition
°C
Rel Hum Definition
%
Precip. Amount Definition
mm

Wind Dir Definition
10's deg

Wind Spd Definition
km/h
Visibility Definition
km
Stn Press Definition
kPa
Hmdx Definition


Wind Chill Definition


Weather Definition


00:00 14.3 14.1 99   LegendMM LegendMM 12.9 97.78      
01:00 14.1 13.5 96   LegendMM LegendMM 15.0 97.77      
02:00 12.9 12.1 95   LegendMM LegendMM 15.0 97.70      
03:00 13.7 12.0 89   LegendMM LegendMM 15.0 97.64      
04:00 13.6 11.9 89   LegendMM LegendMM 15.0 97.62      
05:00 13.9 12.0 88   LegendMM LegendMM 15.0 97.61      
06:00 13.8 11.9 88   LegendMM LegendMM 15.0 97.62      
07:00 13.4 11.6 89   LegendMM LegendMM 15.0 97.66      
08:00 13.5 11.3 87   LegendMM LegendMM 15.0 97.65      
09:00 14.4 9.3 71   LegendMM LegendMM 15.0 97.67      
10:00 14.8 11.7 82   LegendMM LegendMM 15.0 97.69      
11:00 14.4 11.0 80   LegendMM LegendMM 15.0 97.69     Rain
12:00 16.2 10.2 68   LegendMM LegendMM 15.0 97.67      
13:00 16.0 10.7 71   LegendMM LegendMM 15.0 97.72      
14:00 14.2 9.9 75   LegendMM LegendMM 15.0 97.80     Drizzle
15:00 14.6 9.3 70   LegendMM LegendMM 15.0 97.87      
16:00 14.5 8.7 68   LegendMM LegendMM 15.0 97.91      
17:00 14.2 8.6 69   LegendMM LegendMM 15.0 98.01      
18:00 13.4 9.8 79   LegendMM LegendMM 15.0 98.09     Rain
19:00 12.5 10.1 85   LegendMM LegendMM 15.0 98.16     Rain
20:00 12.6 9.7 82   LegendMM LegendMM 15.0 98.23      
21:00 12.3 9.1 81   LegendMM LegendMM 15.0 98.26      
22:00 12.0 9.3 84   LegendMM LegendMM 15.0 98.28      
23:00 12.1 9.4 84   LegendMM LegendMM 15.0 98.31      

Notes on Data Quality.

Legend

  • E = Estimated
  • M = Missing
  • NA = Not Available*
  • [empty] = Indicates an unobserved value
Date modified: